[[{"header":{"parameterUnit":"m.s-1","parameterCategory":1,"la1":30.2991,"la2":30.254,"lo1":-89.0895,"lo2":-89.0444,"dy":0.0017,"dx":0.0017,"nx":28,"ny":28,"refTime":"2025-08-13T09:00:00:Z","depth":0,"parameterNumber":2,"parameterNumberName":"U-component_of_WINDS"},"data":[0,0,0,0,0,0,0,0,0,0,0,0,0,0,0,0,0,0,0,0,0,0,0,0,0,0,0,0,0,0,0,0,0,0,0,0,0,0,0,0,0,0,0,0,0,0,0,0,0,0,0,0,0,0,0,0,0,0,1.248,1.2481,0,1.259,1.2591,1.2592,1.2603,1.2602,1.26,1.2599,1.2714,1.2718,1.2722,0,0,0,0,0,0,0,0,0,0,0,0,0,1.2278,1.2282,1.248,1.2481,1.2482,1.259,1.2591,1.2593,1.2603,1.2602,1.26,1.2599,1.2712,1.2717,1.2722,0,0,0,0,0,0,0,0,0,0,0,0,0,1.2375,1.2283,1.2479,1.25,1.2503,1.2589,1.2591,1.2593,1.2603,1.2601,1.26,1.2598,1.2711,1.2717,1.2723,1.2796,0,0,1.2742,1.2744,0,0,0,0,0,0,0,0,1.2369,1.2382,1.2496,1.2499,1.2503,1.2581,1.2562,1.2661,1.2604,1.2565,1.2599,1.2597,1.2671,1.268,1.2705,1.2801,1.2806,1.2742,1.2746,1.2749,1.275,0,0,0,0,0,0,0,1.2362,1.2377,1.2523,1.2498,1.2502,1.2504,1.2516,1.2581,1.2627,1.2569,1.257,1.2582,1.2672,1.2699,1.2708,1.2808,1.2742,1.2748,1.2751,1.2754,1.2966,1.2968,0,0,0,0,0,0,1.2352,1.2372,1.252,1.2527,1.243,1.2509,1.2522,1.2557,1.2626,1.2635,1.2584,1.2582,1.2689,1.27,1.2712,1.28,1.2749,1.2754,1.2758,1.2965,1.2967,1.2969,0,0,0,0,0,0,1.2347,1.2365,1.2515,1.2449,1.2469,1.2515,1.2554,1.2561,1.2587,1.2637,1.2646,1.2602,1.2688,1.2703,1.2774,1.2804,1.2757,1.2763,1.2962,1.2965,1.2968,1.2978,0,0,0,0,0,0,1.2341,1.2363,1.2392,1.245,1.2472,1.2576,1.2556,1.2564,1.2597,1.2597,1.2657,1.2665,1.2688,1.2765,1.278,1.2812,1.2768,1.296,1.2964,1.2967,1.2975,1.298,1.2985,0,0,0,0,0,1.2334,1.2391,1.2393,1.2411,1.2509,1.2578,1.2591,1.2615,1.26,1.2628,1.266,1.2663,1.2798,1.2772,1.2789,1.2823,1.2958,1.2963,1.2967,1.2972,1.2979,1.2985,0,0,0,0,0,0,1.2336,1.2399,1.2402,1.2479,1.2523,1.2579,1.2617,1.2622,1.2671,1.2669,1.2697,1.2711,1.278,1.2809,1.2779,1.2896,1.2876,1.2885,1.2875,1.2882,1.2887,1.2878,1.2773,0,0,0,0,0,1.2345,1.2396,1.2448,1.2511,1.2533,1.2571,1.2602,1.2617,1.2663,1.2682,1.2719,1.2765,1.2817,1.2851,1.2902,1.2979,1.2991,1.301,1.3016,1.302,1.3026,1.3067,1.3075,1.2983,1.2983,1.2983,0,0,1.2365,1.2406,1.2436,1.2513,1.2548,1.2599,1.2586,1.2642,1.268,1.2691,1.2759,1.2788,1.2841,1.2914,1.2948,1.294,1.3054,1.3025,1.3028,1.3033,1.3072,1.3081,1.3088,1.2986,1.2986,1.2985,0,0,1.2428,1.2464,1.2519,1.2555,1.2608,1.2632,1.2645,1.2701,1.272,1.2789,1.2797,1.2843,1.2933,1.2969,1.3,1.3072,1.3077,1.3088,1.3116,1.3155,1.3162,1.3169,1.3193,1.3202,1.3095,1.3095,1.3095,0,1.2446,1.2524,1.2547,1.2602,1.2634,1.2645,1.27,1.2734,1.2801,1.2824,1.2813,1.2924,1.2961,1.3041,1.3059,1.3084,1.3099,1.3082,1.3159,1.3166,1.3172,1.3196,1.3205,1.3096,1.3096,1.3096,1.3096,0,1.2542,1.2596,1.2634,1.2698,1.2735,1.279,1.2821,1.2856,1.2866,1.2891,1.2961,1.3004,1.3063,1.3083,1.3095,1.3165,1.3158,1.3153,1.3134,1.3182,1.3204,1.3214,1.3097,1.3097,1.3097,1.3096,0,0,1.2611,1.2684,1.2698,1.2726,1.2784,1.2826,1.2881,1.2937,1.2966,1.3011,1.3057,1.3132,1.3126,1.316,1.3176,1.3211,1.3263,1.3201,1.3203,1.321,1.3341,1.3344,1.3354,1.3266,1.3268,1.3269,1.3336,0,1.2679,1.2776,1.2798,1.2881,1.293,1.2939,1.2986,1.3027,1.3051,1.3096,1.3123,1.3175,1.3165,1.3185,1.3219,1.325,1.329,1.3245,1.3308,1.331,1.3294,1.3367,1.3371,1.3432,1.3346,1.3347,1.3348,0,1.2772,1.2818,1.2905,1.2955,1.2976,1.3019,1.3071,1.3114,1.3159,1.3174,1.3211,1.3222,1.3279,1.3256,1.3334,1.3302,1.3329,1.3348,1.3351,1.3357,1.3332,1.3374,1.3452,1.3461,1.3363,1.3362,1.3361,0,1.281,1.2895,1.2958,1.2981,1.3041,1.307,1.3097,1.314,1.3172,1.3218,1.3238,1.329,1.3319,1.3358,1.3383,1.3365,1.3458,1.3438,1.3471,1.347,1.349,1.3489,1.3573,1.3509,1.3509,1.3509,1.3508,0,1.2884,1.2937,1.2975,1.3014,1.3073,1.3097,1.3155,1.3181,1.322,1.3263,1.3274,1.3315,1.3345,1.339,1.341,1.3469,1.3483,1.3496,1.35,1.3494,1.3493,1.3512,1.3508,1.3511,1.3511,1.351,1.351,0,1.2938,1.2966,1.3035,1.3085,1.3099,1.314,1.3183,1.322,1.3244,1.3298,1.3312,1.335,1.3402,1.3431,1.3497,1.351,1.3577,1.358,1.3561,1.3563,1.3594,1.359,1.3693,1.3707,1.3634,1.3635,1.3636,0,1.2983,1.3023,1.3077,1.3106,1.3133,1.3181,1.3212,1.3237,1.3269,1.3323,1.3353,1.3406,1.345,1.3533,1.3566,1.3616,1.362,1.3652,1.3628,1.3619,1.3619,1.3616,1.3619,1.3657,1.3657,1.3658,1.3658,0,1.3059,1.307,1.3115,1.3165,1.3202,1.3242,1.3282,1.3306,1.3336,1.3372,1.3425,1.3459,1.3525,1.3577,1.3629,1.3656,1.3662,1.3665,1.3676,1.367,1.3657,1.3663,1.3572,1.3663,1.3663,1.3662,1.3662,1.3662,1.3109,1.3144,1.3187,1.3236,1.3269,1.3305,1.3342,1.3369,1.3414,1.3469,1.3481,1.3536,1.3579,1.3649,1.3677,1.3721,1.3714,1.3729,1.3733,1.3736,1.3736,1.365,1.373,1.373,1.373,1.373,1.373,0,1.3184,1.3211,1.3256,1.3311,1.3349,1.335,1.3394,1.3426,1.3474,1.3513,1.3555,1.3615,1.3664,1.37,1.3751,1.3779,1.3782,1.3791,1.3789,1.3794,1.374,1.3726,1.3787,1.3787,1.3787,1.3787,1.3787,1.3787,1.3228,1.3287,1.3303,1.3378,1.3405,1.3459,1.3484,1.3517,1.3547,1.3614,1.3654,1.3677,1.3714,1.3767,1.3812,1.3821,1.3839,1.3847,1.3856,1.3805,1.3799,1.3793,1.3779,1.3851,1.3851,1.3907,1.3907,1.3908]},{"header":{"parameterUnit":"m.s-1","parameterCategory":1,"la1":30.2991,"la2":30.254,"lo1":-89.0895,"lo2":-89.0444,"dy":0.0017,"dx":0.0017,"nx":28,"ny":28,"refTime":"2025-08-13T09:00:00:Z","depth":0,"parameterNumber":3,"parameterNumberName":"V-component_of_WINDS"},"data":[0,0,0,0,0,0,0,0,0,0,0,0,0,0,0,0,0,0,0,0,0,0,0,0,0,0,0,0,0,0,0,0,0,0,0,0,0,0,0,0,0,0,0,0,0,0,0,0,0,0,0,0,0,0,0,0,0,0,5.1225,5.1224,0,5.1195,5.1195,5.1194,5.1122,5.1121,5.1119,5.1118,5.1088,5.1089,5.1089,0,0,0,0,0,0,0,0,0,0,0,0,0,5.1221,5.1221,5.1225,5.1224,5.1224,5.1195,5.1195,5.1194,5.1123,5.1121,5.1119,5.1117,5.1088,5.1089,5.1089,0,0,0,0,0,0,0,0,0,0,0,0,0,5.121,5.1222,5.1225,5.1185,5.1181,5.1195,5.1195,5.1194,5.1123,5.1121,5.1119,5.1116,5.1088,5.1089,5.109,5.114,0,0,5.1092,5.1093,0,0,0,0,0,0,0,0,5.1211,5.121,5.1191,5.1188,5.1183,5.116,5.1182,5.1176,5.1124,5.1145,5.1118,5.1115,5.1114,5.1113,5.1112,5.1139,5.1138,5.1092,5.1093,5.1093,5.1094,0,0,0,0,0,0,0,5.1212,5.1211,5.1213,5.1191,5.1186,5.1169,5.1165,5.1181,5.1143,5.1143,5.1138,5.1135,5.1111,5.1111,5.1111,5.1137,5.1092,5.1093,5.1094,5.1094,5.1206,5.1208,0,0,0,0,0,0,5.1218,5.1212,5.1214,5.1212,5.1192,5.1171,5.1166,5.117,5.1142,5.1136,5.1137,5.1132,5.1111,5.111,5.111,5.1167,5.1093,5.1094,5.1095,5.1203,5.1206,5.1209,0,0,0,0,0,0,5.1218,5.1219,5.1215,5.1211,5.1209,5.1173,5.1178,5.117,5.117,5.1138,5.1131,5.1144,5.1109,5.1108,5.1133,5.1165,5.1095,5.1096,5.12,5.1204,5.1207,5.1283,0,0,0,0,0,0,5.1218,5.1219,5.1238,5.1212,5.1209,5.1239,5.118,5.1171,5.1172,5.1165,5.1142,5.1136,5.1107,5.1132,5.1134,5.1165,5.1096,5.1197,5.1202,5.1206,5.1278,5.1289,5.1299,0,0,0,0,0,5.1219,5.126,5.1239,5.124,5.1232,5.1241,5.124,5.1205,5.1175,5.1193,5.1173,5.1137,5.1162,5.1136,5.1137,5.1169,5.1195,5.1201,5.1206,5.1273,5.1287,5.1298,0,0,0,0,0,0,5.129,5.1256,5.1232,5.1266,5.1257,5.1229,5.1251,5.1221,5.122,5.1214,5.1171,5.1167,5.1198,5.1186,5.1157,5.1217,5.1173,5.1179,5.1223,5.1236,5.1246,5.1248,5.1097,0,0,0,0,0,5.131,5.1321,5.129,5.1323,5.132,5.1287,5.129,5.1264,5.1253,5.1248,5.123,5.1221,5.1226,5.1231,5.1234,5.1276,5.1271,5.1299,5.131,5.1318,5.1324,5.1346,5.1358,5.1227,5.1227,5.1226,0,0,5.1351,5.1334,5.1343,5.1337,5.1327,5.1339,5.1284,5.1298,5.1307,5.1251,5.1273,5.126,5.1247,5.1281,5.1295,5.1272,5.1359,5.1325,5.1333,5.1333,5.1352,5.1365,5.1376,5.123,5.123,5.1229,0,0,5.1432,5.142,5.1446,5.1438,5.1423,5.1401,5.1408,5.1385,5.1373,5.1396,5.1354,5.1364,5.1375,5.1367,5.1365,5.1446,5.1413,5.1448,5.1502,5.1524,5.1534,5.1543,5.1572,5.1583,5.1454,5.1454,5.1454,0,5.1484,5.15,5.1464,5.1481,5.1481,5.1431,5.1458,5.1452,5.144,5.144,5.1415,5.1428,5.1416,5.1448,5.1468,5.1468,5.1474,5.1449,5.1536,5.1544,5.1552,5.1579,5.159,5.1458,5.1458,5.1457,5.1457,0,5.1565,5.1578,5.1601,5.1591,5.1593,5.1615,5.1583,5.1589,5.1565,5.1546,5.157,5.1554,5.1553,5.1559,5.1535,5.1588,5.1574,5.1544,5.1498,5.157,5.1594,5.1604,5.1464,5.1463,5.1462,5.1461,0,0,5.1687,5.1659,5.1668,5.1663,5.1645,5.1653,5.1675,5.1674,5.1681,5.1675,5.1692,5.1703,5.1674,5.1672,5.1647,5.1666,5.1731,5.1633,5.1632,5.1651,5.1789,5.1812,5.1824,5.171,5.1712,5.1714,5.179,0,5.1762,5.1796,5.1765,5.1804,5.1815,5.177,5.1788,5.178,5.1763,5.1771,5.1753,5.1761,5.1723,5.1721,5.1739,5.172,5.1758,5.1714,5.1725,5.1726,5.1728,5.1837,5.1861,5.1933,5.18,5.1801,5.1802,0,5.1853,5.1852,5.1893,5.1874,5.1877,5.1894,5.1892,5.19,5.189,5.1877,5.1875,5.1845,5.1865,5.1822,5.1849,5.182,5.1823,5.1815,5.1817,5.1815,5.1767,5.1838,5.1956,5.1967,5.1817,5.1816,5.1815,0,5.1938,5.1946,5.1972,5.197,5.1948,5.1961,5.1953,5.194,5.1943,5.1942,5.1943,5.1945,5.1945,5.1947,5.1919,5.189,5.195,5.1904,5.1939,5.194,5.1952,5.1951,5.2071,5.1956,5.1956,5.1956,5.1956,0,5.2023,5.205,5.201,5.2025,5.2054,5.202,5.2049,5.2036,5.2027,5.2039,5.2001,5.2014,5.1976,5.1985,5.1963,5.1989,5.199,5.198,5.1974,5.1983,5.1984,5.1983,5.1977,5.1959,5.1958,5.1958,5.1957,0,5.2121,5.2095,5.212,5.2098,5.2094,5.2116,5.2097,5.2111,5.2094,5.211,5.2112,5.2084,5.2093,5.2066,5.2071,5.2056,5.2094,5.2079,5.2097,5.2092,5.2128,5.2125,5.2251,5.2266,5.2143,5.2144,5.2145,0,5.2176,5.2196,5.2177,5.2183,5.2177,5.2187,5.219,5.2157,5.2162,5.2153,5.2169,5.2175,5.2177,5.2195,5.2175,5.2179,5.2164,5.2208,5.2164,5.2173,5.2163,5.2162,5.2164,5.2216,5.2218,5.2219,5.222,0,5.2278,5.2265,5.227,5.2272,5.2276,5.2276,5.2273,5.228,5.2246,5.2253,5.2262,5.2265,5.227,5.2277,5.2277,5.2269,5.2239,5.2234,5.2242,5.2251,5.226,5.2255,5.212,5.2231,5.223,5.2229,5.2228,5.2228,5.2355,5.2371,5.236,5.2368,5.2363,5.2362,5.2374,5.2358,5.2366,5.2367,5.2349,5.2362,5.2353,5.235,5.2345,5.2356,5.2335,5.2347,5.235,5.2353,5.2359,5.226,5.2356,5.2355,5.2355,5.2355,5.2354,0,5.2454,5.2445,5.2453,5.2451,5.2457,5.243,5.2426,5.2433,5.2446,5.244,5.2444,5.2456,5.2463,5.2445,5.2449,5.2461,5.2448,5.2463,5.2461,5.246,5.2377,5.2369,5.2474,5.2474,5.2474,5.2474,5.2474,5.2474,5.2505,5.2531,5.2517,5.254,5.2531,5.2544,5.2545,5.2544,5.2539,5.2554,5.2559,5.2548,5.2538,5.2541,5.2547,5.2541,5.2544,5.2565,5.2555,5.2477,5.2466,5.2454,5.2447,5.2566,5.2566,5.2636,5.2637,5.2637]}]]